Location: Unspecified
(0.0000°N, 0.0000°E)
Time: 11:19:23
(UTC+00:00)

Vanguard 2 - Pass Details

Date: 19 November 2019
Orbit: 553 x 2938 km, 32.9° (Epoch: 07 December)

Event Time Altitude Azimuth Distance (km) Brightness Sun altitude
Rises 23:39:27 0° 216° (SW) 5,689 12.2 -70.4°
Reaches altitude 10° 23:45:02 10° 198° (SSW) 5,093 11.8 -70.4°
Maximum altitude 23:54:36 18° 160° (SSE) 4,891 11.7 -70.3°
Drops below altitude 10° 00:05:14 10° 123° (ESE) 5,770 12.1 -69.8°
Sets 00:12:12 0° 106° (ESE) 6,717 12.5 -69.4°
